Location: Charbonni�res
(45.9952°N, 2.9982°E)
Time: 13:42:09
(UTC+00:00)

ALOS - Pass Details

Date: 29 November 2020
Orbit: 682 x 686 km, 97.9° (Epoch: 27 January)

Event Time Altitude Azimuth Distance (km) Brightness Sun altitude
Rises 03:47:54 0° 20° (NNE) 3,064 5.9 -34.0°
Reaches altitude 10° 03:50:18 10° 29° (NNE) 2,143 5.1 -33.5°
Enters shadow 03:53:18 30° 60° (ENE) 1,215 3.9 -33.0°
